This demonstration page uses our WeatherBlox Daily Observations layout. Learn more.

Left ArrowRight Arrow

Hourly Observations for April 28, 2018

Temp ( °F °C ) Dew Point ( °F °C ) Humidity (%) Winds ( mph kmh ) Pressure ( in mb ) Visibility ( mi km ) Precip ( " mm )
12:56 am 00:56 Clear 46 7.8 33 0.6 61 61 NE 13 20 30.07 1018 10 16 0.00 0.00
1:56 am 01:56 Clear 44 6.7 32 0 63 63 NE 10 17 30.08 1019 10 16 0.00 0.00
2:56 am 02:56 Clear 40 4.4 32 0 73 73 NE 9 15 30.09 1019 10 16 0.00 0.00
3:56 am 03:56 Clear 39 3.9 31 -0.6 73 73 NNE 7 11 30.10 1019 10 16 0.00 0.00
4:56 am 04:56 Clear 37 2.8 31 -0.6 79 79 NE 7 11 30.11 1020 10 16 0.00 0.00
5:56 am 05:56 Clear 38 3.3 31 -0.6 76 76 Calm 30.13 1020 10 16 0.00 0.00
6:56 am 06:56 Sunny 36 2.2 31 -0.6 82 82 NE 8 13 30.15 1021 10 16 0.00 0.00
7:56 am 07:56 Sunny 40 4.4 34 1.1 79 79 NE 5 7 30.17 1022 10 16 0.00 0.00
8:56 am 08:56 Sunny 46 7.8 35 1.7 66 66 E 9 15 30.18 1022 10 16 0.00 0.00
9:56 am 09:56 Sunny 50 10 35 1.7 57 57 E 12 19 30.18 1022 10 16 0.00 0.00
10:56 am 10:56 Sunny 52 11.1 34 1.1 50 50 ESE 9 15 30.20 1023 10 16 0.00 0.00
11:56 am 11:56 Sunny 55 12.8 33 0.6 44 44 E 8 13 30.19 1022 10 16 0.00 0.00
12:56 pm 12:56 Sunny 58 14.4 31 -0.6 36 36 ESE 8 13 30.17 1022 10 16 0.00 0.00
1:56 pm 13:56 Sunny 60 15.6 29 -1.7 31 31 ESE 13 20 30.14 1021 10 16 0.00 0.00
2:56 pm 14:56 Sunny 63 17.2 31 -0.6 30 30 ESE 10 17 30.12 1020 10 16 0.00 0.00
3:56 pm 15:56 Sunny 65 18.3 30 -1.1 27 27 SSE 14 22 30.09 1019 10 16 0.00 0.00
4:45 pm 16:45 Mostly Sunny 66 19 28 -2 24 24 SE 15 24 30.00 1016 10 16 0.00 0.00
4:56 pm 16:56 Mostly Sunny 66 18.9 29 -1.7 25 25 ESE 15 24 30.06 1018 10 16 0.00 0.00
5:56 pm 17:56 Sunny 67 19.4 29 -1.7 24 24 SSE 17 28 30.05 1018 10 16 0.00 0.00
6:56 pm 18:56 Sunny 66 18.9 30 -1.1 26 26 SE 18 30 30.04 1017 10 16 0.00 0.00
8:56 pm 20:56 Clear 55 12.8 32 0 42 42 SSE 10 17 30.06 1018 10 16 0.00 0.00
9:56 pm 21:56 Clear 52 11.1 34 1.1 50 50 SE 9 15 30.07 1018 10 16 0.00 0.00
10:56 pm 22:56 Clear 52 11.1 34 1.1 50 50 ESE 13 20 30.06 1018 10 16 0.00 0.00

Powered by AerisWeather